COSMOS 1844 (17973 NORAD) Tracking and Keplerian Element Data

This shows tracking and keplerian element data for the satellite.

Feedback or suggestion? Click here.




ElementValue
Catalog17973
NameCOSMOS 1844
Epoch Orbit78978
Epoch Day16.13634832
Epoch Year2022
RAAN345.4331
Inclination70.9011
Eccentricity0.0029022
Argument of Perigee137.7874
Mean Anonmoly222.5489
Mean Motion14.14142358
Decay Rate-4.2E-07
L11 17973U 87041A 22016.13634832 -.00000042 00000+0 30491-5 0 9996
L22 17973 70.9011 345.4331 0029022 137.7874 222.5489 14.14142358789786

Live tracking and technical data element details for COSMOS 1844 (NORAD 17973). COSMOS 1844 can be tracked NOW for your location showing map with azimuth and elevation plus other details from your city location.

Track the satellite on the map from your city or location and see movement details for azimuth, elevation, latitude, longitude, range, height, and movement on the map or in text.







IsCatalogInMostPopularTable: catalog: 17973, numindb: 328
Update: records affected: 1



GetName: 17973 COSMOS 1844

Hit Count: updated at: Mon, 17 Jan 2022 01:38:01 GMT